Dallas Love, TX

9:52 PM CDT on September 20, 2017 (GMT -0500)
Dallas Love

Weather History for KDAL - June, 2013

Change the Weather History Date:

Wednesday, June 26, 2013

  Actual Average Record
Temperature  
Mean Temperature 88 °F -  
Max Temperature 99 °F 90 °F 107 °F (2012)
Min Temperature 78 °F 72 °F 69 °F (2007)
Cooling Degree Days 23    
Growing Degree Days 38 (Base 50)    
Moisture  
Dew Point 68 °F    
Average Humidity 52    
Maximum Humidity 74    
Minimum Humidity 36    
Precipitation  
Precipitation 0.00 in - - ()
Sea Level Pressure  
Sea Level Pressure 29.88 in    
Wind  
Wind Speed 14 mph (South)    
Max Wind Speed 17 mph    
Max Gust Speed 26 mph    
Visibility 10 miles    
Events      
Averages and records for this station are not official NWS values.
T = Trace of Precipitation, MM = Missing Value Source: NWS Daily Summary

Daily Weather History Graph

Daily Weather History Graph

Search for Another Location

Airport or City:

Trip Planner

Search our weather history database for the weather conditions in past years. The results will help you decide how hot, cold, wet, or windy it might be!

Date:

Astronomy

Jun. 26, 2013 Rise Set
Actual Time 6:21 AM CDT 8:39 PM CDT
Civil Twilight 5:52 AM CDT 9:08 PM CDT
Nautical Twilight 5:17 AM CDT 9:43 PM CDT
Astronomical Twilight 4:39 AM CDT 10:21 PM CDT
Moon 11:18 PM CDT (6/26) 10:01 AM CDT (6/26)
Length of Visible Light 15h 15m
Length of Day
14h 18m
Waning Gibbous, 85% of the Moon is Illuminated
Jun 26
Waning Gibbous
Jun 29
Last Quarter
Jul 8
New
Jul 15
First Quarter
Jul 22
Full

Hourly Weather History & Observations

Time (CDT) Temp. Heat Index Dew Point Humidity Pressure Visibility Wind Dir Wind Speed Gust Speed Precip Events Conditions
12:53 AM 88.0 °F 88.7 °F 63.0 °F 43% 29.85 in 10.0 mi South 17.3 mph 26.5 mph N/A   Clear
1:53 AM 86.0 °F 87.3 °F 64.0 °F 48% 29.85 in 10.0 mi South 11.5 mph 17.3 mph N/A   Clear
2:53 AM 84.0 °F 86.3 °F 66.0 °F 55% 29.85 in 10.0 mi South 15.0 mph 26.5 mph N/A   Partly Cloudy
3:53 AM 82.0 °F 84.1 °F 66.0 °F 58% 29.85 in 10.0 mi South 17.3 mph - N/A   Partly Cloudy
4:53 AM 81.0 °F 83.3 °F 66.9 °F 62% 29.86 in 10.0 mi South 13.8 mph - N/A   Partly Cloudy
5:53 AM 80.1 °F 82.7 °F 68.0 °F 67% 29.87 in 10.0 mi South 12.7 mph 20.7 mph N/A   Scattered Clouds
6:53 AM 79.0 °F - 70.0 °F 74% 29.89 in 10.0 mi South 9.2 mph 19.6 mph N/A   Scattered Clouds
7:40 AM 78.8 °F - 69.8 °F 74% 29.94 in 10.0 mi South 11.5 mph - N/A   Mostly Cloudy
7:53 AM 80.1 °F 83.2 °F 70.0 °F 71% 29.92 in 10.0 mi South 11.5 mph - N/A   Mostly Cloudy
8:19 AM 80.6 °F 83.9 °F 69.8 °F 70% 29.95 in 10.0 mi South 13.8 mph 20.7 mph N/A   Scattered Clouds
8:53 AM 82.0 °F 85.5 °F 69.1 °F 65% 29.94 in 10.0 mi SSW 12.7 mph 21.9 mph N/A   Mostly Cloudy
9:53 AM 86.0 °F 90.1 °F 69.1 °F 57% 29.94 in 10.0 mi South 15.0 mph - N/A   Partly Cloudy
10:53 AM 88.0 °F 92.1 °F 69.1 °F 53% 29.94 in 10.0 mi South 13.8 mph 19.6 mph N/A   Partly Cloudy
11:53 AM 91.0 °F 96.6 °F 70.0 °F 50% 29.94 in 10.0 mi South 13.8 mph - N/A   Partly Cloudy
12:53 PM 91.9 °F 97.4 °F 70.0 °F 48% 29.93 in 10.0 mi South 10.4 mph 21.9 mph N/A   Clear
1:53 PM 95.0 °F 101.3 °F 70.0 °F 44% 29.91 in 10.0 mi South 15.0 mph 21.9 mph N/A   Partly Cloudy
2:53 PM 96.1 °F 102.9 °F 70.0 °F 43% 29.88 in 10.0 mi SSE 13.8 mph 23.0 mph N/A   Partly Cloudy
3:53 PM 97.0 °F 103.5 °F 70.0 °F 41% 29.86 in 10.0 mi SSE 12.7 mph - N/A   Partly Cloudy
4:53 PM 98.1 °F 105.0 °F 70.0 °F 40% 29.86 in 10.0 mi SSE 11.5 mph 16.1 mph N/A   Partly Cloudy
5:53 PM 98.1 °F 104.4 °F 69.1 °F 39% 29.84 in 10.0 mi SSE 16.1 mph - N/A   Partly Cloudy
6:53 PM 98.1 °F 102.4 °F 66.9 °F 36% 29.83 in 10.0 mi South 17.3 mph - N/A   Partly Cloudy
7:53 PM 97.0 °F 100.4 °F 66.0 °F 36% 29.83 in 10.0 mi South 11.5 mph - N/A   Partly Cloudy
8:53 PM 93.9 °F 97.0 °F 66.0 °F 40% 29.83 in 10.0 mi South 8.1 mph - N/A   Scattered Clouds
9:53 PM 91.0 °F 94.3 °F 66.9 °F 45% 29.84 in 10.0 mi South 8.1 mph - N/A   Partly Cloudy
10:53 PM 93.0 °F 95.0 °F 64.9 °F 39% 29.88 in 10.0 mi South 11.5 mph - N/A   Partly Cloudy
11:53 PM 91.0 °F 93.0 °F 64.9 °F 42% 29.88 in 10.0 mi South 12.7 mph - N/A   Clear